This demonstration page uses our WeatherBlox Daily Observations layout. Learn more.

Left ArrowRight Arrow

39.92423, -83.80882

Hourly Observations for November 14, 2020

Temp ( °F °C ) Dew Point ( °F °C ) Humidity (%) Winds ( mph kmh ) Pressure ( in mb ) Visibility ( mi km ) Precip ( " mm )
12:56 am 00:56 Clear 29 -1.7 28 -2.2 96 96 N N/A 30.21 1023 10 16 N/A
1:56 am 01:56 Clear 28 -2.2 27 -2.8 96 96 N 3 6 30.22 1023 10 16 N/A
2:56 am 02:56 Clear 27 -2.8 27 -2.8 100 100 ESE 3 6 30.24 1024 8 13 N/A
3:56 am 03:56 Clear with Mist and Fog 23 -5 23 -5 100 100 ESE 5 7 30.24 1024 6 10 N/A
4:56 am 04:56 Clear with Mist and Fog 23 -5 23 -5 100 100 E 5 7 30.23 1024 6 10 N/A
5:56 am 05:56 Clear 23 -5 23 -5 100 100 ESE 6 9 30.24 1024 8 13 N/A
6:56 am 06:56 Clear 24 -4.4 24 -4.4 100 100 SE 7 11 30.23 1024 7 11 N/A
7:56 am 07:56 Sunny with Mist and Fog 25 -3.9 25 -3.9 100 100 ESE 5 7 30.25 1024 6 10 N/A
8:56 am 08:56 Sunny with Mist and Fog 31 -0.6 30 -1.1 96 96 SE 8 13 30.25 1024 6 10 N/A
9:56 am 09:56 Sunny 37 2.8 33 0.6 86 86 ESE 8 13 30.24 1024 9 14 N/A
10:56 am 10:56 Sunny 41 5 34 1.1 76 76 SE 10 17 30.22 1024 10 16 N/A
11:56 am 11:56 Sunny 43 6.1 35 1.7 74 74 SE 12 19 30.19 1023 10 16 N/A
12:56 pm 12:56 Sunny 47 8.3 37 2.8 69 69 ESE 10 17 30.16 1021 10 16 N/A
1:56 pm 13:56 Sunny 49 9.4 36 2.2 61 61 SSE 13 20 30.14 1021 10 16 N/A
2:56 pm 14:56 Partly Cloudy 50 10 38 3.3 63 63 SE 9 15 30.11 1020 10 16 N/A
3:56 pm 15:56 Cloudy 51 10.6 37 2.8 59 59 SE 9 15 30.09 1019 10 16 N/A
4:56 pm 16:56 Cloudy 50 10 37 2.8 61 61 SE 9 15 30.07 1018 10 16 N/A
5:56 pm 17:56 Mostly Cloudy 48 8.9 38 3.3 68 68 ESE 12 19 30.05 1018 10 16 N/A
6:56 pm 18:56 Cloudy 49 9.4 37 2.8 64 64 ESE 14 22 30.04 1017 10 16 N/A
7:56 pm 19:56 Cloudy 50 10 37 2.8 61 61 SE 13 20 30.02 1017 10 16 N/A
8:56 pm 20:56 Cloudy 50 10 38 3.3 63 63 SE 13 20 29.98 1015 10 16 N/A
9:56 pm 21:56 Cloudy 49 9.4 38 3.3 66 66 SE 12 19 29.96 1014 10 16 N/A
10:56 pm 22:56 Cloudy with Light Rain 49 9.4 39 3.9 69 69 SE 12 19 29.90 1013 10 16 0.00 0.00
11:56 pm 23:56 Mostly Cloudy 49 9.4 40 4.4 71 71 SE 12 19 29.85 1011 10 16 0.00 0.00

Powered by AerisWeather